Location: Fairhaven
(34.9340°N, 89.7987°W)
Time: 00:39:13
(UTC+00:00)

MOS 1 Rocket - Pass Details

Date: 13 February 2026
Orbit: 608 x 814 km, 97.4° (Epoch: 7 March)

Event Time Altitude Azimuth Distance (km) Brightness Sun altitude
Rises 12:15:00 0° 10° (N) 2,907 6.5 -7.2°
Reaches altitude 10° 12:17:09 10° 9° (N) 2,014 5.7 -6.8°
Maximum altitude 12:21:32 80° 282° (WNW) 664 3.1 -5.9°
Drops below altitude 10° 12:26:06 10° 196° (SSW) 2,105 5.8 -5.0°
Sets 12:28:23 0° 196° (SSW) 3,049 6.6 -4.5°
